Location: Chamerau
(49.1969°N, 12.7525°E)
Time: 09:32:51
(UTC+00:00)

CENTAUR R/B - Pass Details

Date: 18 September 2020
Orbit: 755 x 1433 km, 63.4° (Epoch: 02 October)

Event Time Altitude Azimuth Distance (km) Brightness Sun altitude
Rises 19:23:53 0° 317° (NW) 4,090 7.1 -21.0°
Reaches altitude 10° 19:26:30 10° 318° (NW) 3,209 6.2 -21.3°
Maximum altitude 19:34:29 87° 47° (NE) 1,365 3.1 -22.5°
Enters shadow 19:38:32 37° 137° (SE) 2,049 3.6 -23.0°
